星链-34405 (STARLINK-34405)

导读 | 豆包AI

STARLINK-34405是美国于2025年6月28日发射的星链卫星,星链计划是太空探索技术公司(SpaceX)推出的低轨卫星互联网项目,旨在构建覆盖全球的卫星互联网星座,该卫星将和其他星链卫星协同,为全球用户提供高速低延迟的互联网接入服务。

Basic Information
目录编号:
64704
目录名称:
STARLINK-34405
国际标识:
2025-142J
轨道中心:
EARTH
卫星名称:
星链-34405
卫星全名:
星链-34405 (STARLINK-34405)
卫星状态:
在轨 (已飞行305 天)
发射日期:
2025-06-28 UTC
国别 :
美国 (US)
星等 :
--
Orbit Information
数据来源 国际轨道数据 AOE轨道数据
星历时间 2026-04-29T13:38:20+0800
10小时前
查看轨道信息
2026-04-27T03:00:00+0800
2天前
查看轨道信息
半长轴 6950.184km 6950.235km
偏心率 0.00037 0.0003739
轨道倾角 70.002° 69.999°
近地点辐角 268.312° 275.053°
升交点赤经 186.949° 193.106°
平近点角 91.762° 229.691°
近地点 569.475km 569.499km
远地点 574.619km 574.697km
周期 96.107分钟 96.108分钟
每日圈数 14.983331 14.983165
Detailed Information
固有亮度:
5
最大亮度:
2.5
卫星平台:
Starlink V1.0
覆盖范围:
全球
运营商:
太空探索技术公司
运营商所在国:
美国
制造商(研发单位):
太空探索技术公司
制造商所在国:
美国
使用方式:
暂无
Satellite Introduction
Starlink 计划是 SpaceX 推出的全球卫星互联网项目,通过发射低轨道卫星,为全球尤其是偏远地区提供高速、低延迟的互联网服务。自 2019 年起,Starlink 已部署数千颗卫星,旨在缩小全球数字鸿沟,推动互联网普及。该项目还为军事、航空等行业提供通信支持,带来广泛经济效益。
2D Orbit Map
3D Orbit Map
Orbit Altitude Analysis Chart
Orbit Inclination Analysis Chart
Orbit Comprehensive Analysis Chart
View Comprehensive Chart